Tiempo cada hora Almodovar

Hoy, 19 Enero, Martes

Tiempo Temperatura Precipitaciones Viento Presión Humedad
00:00 +7°C° 0 mm 0 mps 756 mmHg 66%
01:00 +7°C° 0 mm 0 mps 756 mmHg 68%
02:00 +7°C° 0 mm 0 mps 755 mmHg 70%
03:00 +8°C° 0 mm 1 mps 755 mmHg 72%
04:00 +7°C° 0 mm 1 mps 755 mmHg 74%
05:00 +7°C° 0 mm 1 mps 755 mmHg 76%
06:00 +7°C° 0 mm 1 mps 755 mmHg 78%
07:00 +8°C° 0 mm 1 mps 755 mmHg 75%
08:00 +8°C° 0 mm 1 mps 755 mmHg 73%
09:00 +9°C° 0 mm 1 mps 754 mmHg 71%
10:00 +11°C° 0 mm 1 mps 754 mmHg 65%
11:00 +13°C° 0 mm 1 mps 754 mmHg 59%
12:00 +15°C° 0 mm 1 mps 754 mmHg 53%
13:00 +15°C° 0 mm 1 mps 754 mmHg 53%
14:00 +15°C° 0 mm 1 mps 753 mmHg 52%
15:00 +15°C° 0 mm 1 mps 752 mmHg 52%
16:00 +13°C° 0 mm 1 mps 752 mmHg 60%
17:00 +12°C° 0 mm 1 mps 752 mmHg 68%
18:00 +10°C° 0 mm 1 mps 752 mmHg 75%
19:00 +10°C° 0 mm 1 mps 752 mmHg 78%
20:00 +9°C° 0 mm 1 mps 751 mmHg 81%
21:00 +8°C° 0 mm 0 mps 751 mmHg 83%
22:00 +8°C° 0 mm 0 mps 751 mmHg 84%
23:00 +9°C° 0 mm 1 mps 751 mmHg 85%

Mañana, 20 Enero, Miércoles

Tiempo Temperatura Precipitaciones Viento Presión Humedad
00:00 +9°C° 0 mm 1 mps 751 mmHg 86%
01:00 +9°C° 0 mm 1 mps 750 mmHg 86%
02:00 +9°C° 0 mm 1 mps 750 mmHg 85%
03:00 +8°C° 0 mm 2 mps 749 mmHg 84%
04:00 +8°C° 0 mm 2 mps 749 mmHg 83%
05:00 +8°C° 0 mm 2 mps 748 mmHg 81%
06:00 +9°C° 0 mm 3 mps 748 mmHg 80%
07:00 +9°C° 0.4 mm 3 mps 748 mmHg 81%
08:00 +9°C° 0.4 mm 2 mps 747 mmHg 83%
09:00 +9°C° 0.4 mm 2 mps 747 mmHg 84%
10:00 +10°C° 2.2 mm 3 mps 747 mmHg 87%
11:00 +10°C° 2.2 mm 4 mps 746 mmHg 90%
12:00 +9°C° 2.2 mm 5 mps 746 mmHg 93%
13:00 +10°C° 0.8 mm 5 mps 745 mmHg 91%
14:00 +12°C° 0.8 mm 5 mps 745 mmHg 90%
15:00 +13°C° 0.8 mm 5 mps 744 mmHg 88%
16:00 +12°C° 0.4 mm 5 mps 745 mmHg 87%
17:00 +12°C° 0.4 mm 5 mps 745 mmHg 87%
18:00 +12°C° 0.4 mm 5 mps 745 mmHg 86%
19:00 +11°C° 0 mm 4 mps 746 mmHg 88%
20:00 +10°C° 0 mm 4 mps 747 mmHg 90%
21:00 +10°C° 0 mm 3 mps 747 mmHg 92%
22:00 +10°C° 0.1 mm 3 mps 747 mmHg 93%
23:00 +9°C° 0.1 mm 3 mps 748 mmHg 94%

Pasado mañana, 21 Enero, Jueves

Tiempo Temperatura Precipitaciones Viento Presión Humedad
00:00 +9°C° 0.1 mm 2 mps 748 mmHg 95%
01:00 +9°C° 0 mm 2 mps 748 mmHg 96%
02:00 +9°C° 0 mm 2 mps 748 mmHg 96%
03:00 +9°C° 0 mm 2 mps 749 mmHg 96%
04:00 +9°C° 0 mm 2 mps 749 mmHg 96%
05:00 +8°C° 0 mm 2 mps 749 mmHg 97%
06:00 +8°C° 0 mm 2 mps 749 mmHg 97%
07:00 +9°C° 0 mm 2 mps 750 mmHg 96%
08:00 +9°C° 0 mm 2 mps 750 mmHg 96%
09:00 +10°C° 0 mm 2 mps 750 mmHg 95%
10:00 +11°C° 0.1 mm 3 mps 750 mmHg 92%
11:00 +12°C° 0.1 mm 4 mps 750 mmHg 89%
12:00 +13°C° 0.1 mm 4 mps 750 mmHg 86%
13:00 +14°C° 0.1 mm 5 mps 750 mmHg 82%
14:00 +14°C° 0.1 mm 6 mps 749 mmHg 79%
15:00 +15°C° 0.1 mm 7 mps 749 mmHg 75%
16:00 +14°C° 0.1 mm 7 mps 749 mmHg 80%
17:00 +12°C° 0.1 mm 7 mps 749 mmHg 84%
18:00 +13°C° 0.1 mm 6 mps 749 mmHg 88%
19:00 +13°C° 0.3 mm 6 mps 749 mmHg 90%
20:00 +13°C° 0.3 mm 6 mps 749 mmHg 92%
21:00 +13°C° 0.3 mm 5 mps 749 mmHg 94%
22:00 +13°C° 0.6 mm 5 mps 749 mmHg 95%
23:00 +13°C° 0.6 mm 5 mps 749 mmHg 95%

22 Enero, Viernes

Tiempo Temperatura Precipitaciones Viento Presión Humedad
00:00 +13°C° 0.6 mm 4 mps 749 mmHg 96%
01:00 +13°C° 0.1 mm 4 mps 748 mmHg 97%
02:00 +12°C° 0.1 mm 4 mps 748 mmHg 97%
03:00 +12°C° 0.1 mm 3 mps 748 mmHg 97%
04:00 +12°C° 0 mm 3 mps 747 mmHg 97%
05:00 +12°C° 0 mm 4 mps 747 mmHg 97%
06:00 +12°C° 0 mm 4 mps 747 mmHg 97%
07:00 +12°C° 0.1 mm 5 mps 747 mmHg 94%
08:00 +13°C° 0.1 mm 6 mps 747 mmHg 92%
09:00 +12°C° 0.1 mm 8 mps 747 mmHg 90%
10:00 +12°C° 0.5 mm 7 mps 748 mmHg 82%
11:00 +12°C° 0.5 mm 7 mps 748 mmHg 73%
12:00 +14°C° 0.5 mm 6 mps 748 mmHg 65%
13:00 +14°C° 0 mm 6 mps 748 mmHg 63%
14:00 +14°C° 0 mm 6 mps 748 mmHg 60%
15:00 +14°C° 0 mm 6 mps 748 mmHg 58%
16:00 +13°C° 0 mm 5 mps 749 mmHg 64%
17:00 +12°C° 0 mm 4 mps 750 mmHg 69%
18:00 +10°C° 0 mm 3 mps 750 mmHg 75%
19:00 +10°C° 0 mm 3 mps 751 mmHg 77%
20:00 +9°C° 0 mm 2 mps 752 mmHg 80%
21:00 +8°C° 0 mm 2 mps 752 mmHg 83%
22:00 +8°C° 0 mm 2 mps 752 mmHg 84%
23:00 +8°C° 0 mm 2 mps 753 mmHg 84%

23 Enero, Sábado

Tiempo Temperatura Precipitaciones Viento Presión Humedad
00:00 +8°C° 0 mm 2 mps 753 mmHg 85%
01:00 +8°C° 0 mm 1 mps 753 mmHg 86%
02:00 +8°C° 0 mm 1 mps 753 mmHg 88%
03:00 +8°C° 0 mm 1 mps 752 mmHg 89%
04:00 +7°C° 0 mm 1 mps 752 mmHg 91%
05:00 +7°C° 0 mm 1 mps 752 mmHg 92%
06:00 +7°C° 0 mm 1 mps 752 mmHg 94%
07:00 +8°C° 0 mm 1 mps 752 mmHg 91%
08:00 +8°C° 0 mm 1 mps 753 mmHg 89%
09:00 +9°C° 0 mm 1 mps 753 mmHg 87%
10:00 +9°C° 0 mm 2 mps 753 mmHg 82%
11:00 +10°C° 0 mm 2 mps 752 mmHg 78%
12:00 +12°C° 0 mm 3 mps 752 mmHg 74%
13:00 +12°C° 0 mm 3 mps 752 mmHg 73%
14:00 +12°C° 0 mm 3 mps 751 mmHg 73%
15:00 +13°C° 0 mm 4 mps 751 mmHg 72%
16:00 +12°C° 0 mm 4 mps 751 mmHg 77%
17:00 +12°C° 0 mm 4 mps 751 mmHg 81%
18:00 +12°C° 0 mm 4 mps 751 mmHg 85%
19:00 +12°C° 0 mm 5 mps 751 mmHg 86%
20:00 +12°C° 0 mm 5 mps 751 mmHg 87%
21:00 +12°C° 0 mm 5 mps 751 mmHg 88%
22:00 +12°C° 0.1 mm 5 mps 751 mmHg 90%
23:00 +11°C° 0.1 mm 6 mps 751 mmHg 91%

24 Enero, Domingo

Tiempo Temperatura Precipitaciones Viento Presión Humedad
00:00 +11°C° 0.1 mm 6 mps 750 mmHg 92%
01:00 +11°C° 0.1 mm 6 mps 750 mmHg 93%
02:00 +13°C° 0.1 mm 5 mps 750 mmHg 93%
03:00 +13°C° 0.1 mm 5 mps 750 mmHg 94%
04:00 +13°C° 0.1 mm 5 mps 749 mmHg 95%
05:00 +13°C° 0.1 mm 5 mps 749 mmHg 96%
06:00 +13°C° 0.1 mm 4 mps 749 mmHg 97%
07:00 +13°C° 0.1 mm 4 mps 750 mmHg 96%
08:00 +14°C° 0.1 mm 4 mps 750 mmHg 95%
09:00 +14°C° 0.1 mm 4 mps 750 mmHg 94%
10:00 +15°C° 0 mm 4 mps 750 mmHg 88%
11:00 +17°C° 0 mm 4 mps 751 mmHg 82%
12:00 +17°C° 0 mm 5 mps 751 mmHg 76%
13:00 +18°C° 0.1 mm 4 mps 750 mmHg 74%
14:00 +19°C° 0.1 mm 4 mps 750 mmHg 71%
15:00 +19°C° 0.1 mm 4 mps 749 mmHg 68%
16:00 +18°C° 0.2 mm 4 mps 750 mmHg 75%
17:00 +16°C° 0.2 mm 3 mps 750 mmHg 82%
18:00 +15°C° 0.2 mm 2 mps 750 mmHg 88%
19:00 +15°C° 0 mm 2 mps 750 mmHg 90%
20:00 +15°C° 0 mm 2 mps 751 mmHg 92%
21:00 +14°C° 0 mm 2 mps 751 mmHg 94%
22:00 +14°C° 0.1 mm 2 mps 751 mmHg 94%
23:00 +14°C° 0.1 mm 1 mps 751 mmHg 95%
Mostrar más

Necesitamos Su Consentimiento

Meteoprog y nuestros Proveedores de Servicios pueden almacenar y acceder a sus datos personales como cookies, identificadores de dispositivo u otras tecnologías similares de su dispositivo y procesar dichos datos para personalizar contenido y anuncios, además de ofrecer funciones de redes sociales y analizar el tráfico.

  • Almacenar y/o acceder a información en su dispositivo

    Se puede almacenar o acceder a cookies, identificadores de dispositivo u otra información de su dispositivo para los fines anteriormente indicados.

  • Anuncios y contenido personalizados, medición de anuncios y contenido, percepciones del público, y desarrollo de productos

    Los anuncios y el contenido pueden personalizarse en base a su perfil. Se pueden añadir más datos para personalizar mejor los anuncios y contenidos. Se puede medir el rendimiento de los anuncios y contenidos. Se puede obtener la percepción sobre el público que ha visto los anuncios y contenidos. Dichos datos pueden usarse para desarrollar o mejorar la experiencia del usuario, sistemas y software.

Al hacer clic en ‘Estoy De Acuerdo’ usted permitirá el uso de las cookies, identificadores de dispositivo, balizas web u otras tecnologías similares indicadas. Su configuración puede cambiarse desde el navegador de su dispositivo.

Para ciertos fines, los intereses legítimos pueden ser considerados por encima del consentimiento. Puede leer más sobre ello en nuestra Política de Privacidad y Cookies.